DW1384 Weather Reports


time (UTC)temp
C
wind
direction
speed
KPH
gust
KPH
rain 1hr
cm
rain 24hr
cm
rain mn
cm
humidity
%
barometer
mb
20260903180612 19 169 0.0 0.0 0.00 0.00 0.00 83 1017.7
20260903180115 19 178 0.0 0.0 0.00 0.00 0.00 83 1017.7
20260903175608 19 196 0.0 0.0 0.00 0.00 0.00 83 1017.9
20260903175108 19 134 0.0 0.0 0.00 0.00 0.00 83 1017.8
20260903174608 19 134 0.0 0.0 0.00 0.00 0.00 83 1018.3
20260903174109 19 260 0.0 0.0 0.00 0.00 0.00 83 1018.3
20260903173608 19 151 0.0 0.0 0.00 0.00 0.00 83 1018.2
20260903173108 20 153 0.0 0.0 0.00 0.00 0.00 83 1018.2
20260903172609 20 142 0.0 0.0 0.00 0.00 0.00 82 1018.1
20260903172108 20 141 0.0 0.0 0.00 0.00 0.00 82 1018.2
20260903171833 20 143 0.0 0.0 0.00 0.00 0.00 82 1018.1
20260903171109 20 169 0.0 0.0 0.00 0.00 0.00 82 1017.9
20260903170609 20 199 0.0 0.0 0.00 0.00 0.00 82 1018.0
20260903170114 20 224 0.0 0.0 0.00 0.00 0.00 82 1017.9
20260903165610 20 286 0.0 0.0 0.00 0.00 0.00 82 1017.9
20260903165109 20 209 0.0 0.0 0.00 0.00 0.00 82 1017.8
20260903164608 20 191 0.0 0.0 0.00 0.00 0.00 82 1017.7
20260903164110 20 252 0.0 0.0 0.00 0.00 0.00 82 1017.8
20260903163830 20 210 0.0 0.0 0.00 0.00 0.00 82 1017.8
20260903163108 20 255 0.0 0.0 0.00 0.00 0.00 81 1017.9
20260903162608 20 193 0.0 0.0 0.00 0.00 0.00 81 1017.9
20260903162108 20 166 0.0 0.0 0.00 0.00 0.00 81 1017.9
20260903161608 20 153 0.0 0.0 0.00 0.00 0.00 82 1017.9
20260903161334 20 161 0.0 0.0 0.00 0.00 0.00 82 1018.1
20260903160830 20 274 0.0 0.0 0.00 0.00 0.00 82 1018.0
20260903160108 20 171 0.0 0.0 0.00 0.00 0.00 82 1018.1
20260903155604 20 176 0.0 0.0 0.00 0.00 0.00 82 1018.0
20260903155100 20 228 0.0 0.0 0.00 0.00 0.00 82 1018.0
20260903154601 20 175 0.0 0.0 0.00 0.00 0.00 81 1018.0
20260903154321 20 226 0.0 0.0 0.00 0.00 0.00 81 1018.2
20260903153600 20 226 0.0 0.0 0.00 0.00 0.00 81 1018.1
20260903153100 20 230 0.0 0.0 0.00 0.00 0.00 81 1018.2
20260903152558 20 259 0.0 0.0 0.00 0.00 0.00 81 1018.4
20260903152056 20 218 0.0 0.0 0.00 0.00 0.00 81 1018.4
20260903151556 20 281 0.0 0.0 0.00 0.00 0.00 82 1018.4
20260903151058 20 248 0.0 0.0 0.00 0.00 0.00 82 1018.1
20260903150609 20 150 0.0 0.0 0.00 0.00 0.00 81 1018.1
20260903150331 20 255 0.0 0.0 0.00 0.00 0.00 81 1018.2
20260903145558 20 183 0.0 0.0 0.00 0.00 0.00 81 1018.0
20260903145056 20 259 0.0 0.0 0.00 0.00 0.00 81 1018.0
20260903144556 20 246 0.0 0.0 0.00 0.00 0.00 81 1018.3
20260903144055 20 331 0.0 0.0 0.00 0.00 0.00 81 1018.3
20260903143549 20 274 0.0 0.0 0.00 0.00 0.00 82 1018.2
20260903143044 20 30 0.0 0.0 0.00 0.00 0.00 82 1018.3
20260903142540 20 75 0.0 0.0 0.00 0.00 0.00 83 1018.4
20260903142032 20 260 0.0 0.0 0.00 0.00 0.00 83 1018.4
20260903141525 19 303 0.0 0.0 0.00 0.00 0.00 83 1018.4
20260903141500 19 60 0.0 0.0 0.00 0.00 0.00 83 1018.5
20260903140734 19 343 0.0 0.0 0.00 0.00 0.00 84 1018.3
20260903140008 19 283 0.0 0.0 0.00 0.00 0.00 84 1018.5
20260903135501 19 40 0.0 0.0 0.00 0.00 0.00 85 1018.4
20260903134958 19 325 0.0 0.0 0.00 0.00 0.00 85 1018.5
20260903134710 19 267 0.0 0.0 0.00 0.00 0.00 86 1018.6
20260903133944 18 174 0.0 0.0 0.00 0.00 0.00 87 1018.5
20260903133437 18 26 0.0 0.0 0.00 0.00 0.00 87 1018.6
20260903132932 18 348 0.0 0.0 0.00 0.00 0.00 87 1018.6
20260903132426 18 241 0.0 0.0 0.00 0.00 0.00 87 1018.6
20260903131919 18 237 0.0 0.0 0.00 0.00 0.00 87 1018.7
20260903131413 18 184 0.0 0.0 0.00 0.00 0.00 88 1018.5
20260903130908 18 282 0.0 0.0 0.00 0.00 0.00 88 1018.5
20260903130402 17 116 0.0 0.0 0.00 0.00 0.00 88 1018.5
20260903125920 17 231 0.0 0.0 0.00 0.00 0.00 88 1018.5
20260903125855 17 180 0.0 0.0 0.00 0.00 0.00 88 1018.4
20260903125541 17 111 0.0 0.0 0.00 0.00 0.00 88 1018.3
20260903124338 17 72 0.0 0.0 0.00 0.00 0.00 88 1018.4
20260903123833 17 64 0.0 0.0 0.00 0.00 0.00 88 1018.4
20260903123606 17 74 0.0 0.0 0.00 0.00 0.00 88 1018.4
20260903122820 17 214 0.0 0.0 0.00 0.00 0.00 88 1018.4
20260903122313 16 273 0.0 0.0 0.00 0.00 0.00 88 1018.4
20260903121807 16 219 0.0 0.0 0.00 0.00 0.00 88 1018.4
20260903121301 16 208 0.0 0.0 0.00 0.00 0.00 88 1018.4
20260903120756 16 179 0.0 0.0 0.00 0.00 0.00 88 1018.3
20260903120249 16 165 0.0 0.0 0.00 0.00 0.00 88 1018.4
20260903115743 16 166 0.0 0.0 0.00 0.00 0.00 87 1018.3
20260903115502 16 114 0.0 0.0 0.00 0.00 0.00 87 1018.3
20260903114743 16 157 0.0 0.0 0.00 0.00 0.00 87 1018.3
20260903114501 16 155 0.0 0.0 0.00 0.00 0.00 87 1018.3
20260903113744 16 158 0.0 0.0 0.00 0.00 0.00 87 1018.5
20260903113240 16 156 0.0 0.0 0.00 0.00 0.00 87 1018.6
20260903112741 16 176 0.0 0.0 0.00 0.00 0.00 87 1018.8
20260903112237 16 198 0.0 0.0 0.00 0.00 0.00 87 1018.6
20260903111741 16 214 0.0 0.0 0.00 0.00 0.00 86 1018.5
20260903111225 16 170 0.0 0.0 0.00 0.00 0.00 86 1018.5
20260903110940 16 189 0.0 0.0 0.00 0.00 0.00 86 1018.5
20260903110217 16 217 0.0 0.0 0.00 0.00 0.00 86 1018.4
20260903105704 16 106 0.0 0.0 0.00 0.00 0.00 87 1018.5
20260903105155 16 233 0.0 0.0 0.00 0.00 0.00 87 1018.5
20260903104643 16 129 0.0 0.0 0.00 0.00 0.00 87 1018.4
20260903104128 16 132 0.0 0.0 0.00 0.00 0.00 87 1018.3
20260903103617 16 115 0.0 0.0 0.00 0.00 0.00 87 1018.4
20260903103103 16 146 0.0 0.0 0.00 0.00 0.00 87 1018.5
20260903102551 16 154 0.0 0.0 0.00 0.00 0.00 87 1018.5
20260903102038 16 130 0.0 0.0 0.00 0.00 0.00 87 1018.6
20260903101527 15 126 0.0 0.0 0.00 0.00 0.00 87 1018.7
20260903101027 15 116 0.0 0.0 0.00 0.00 0.00 87 1018.6
20260903100458 15 111 0.0 0.0 0.00 0.00 0.00 87 1018.5
20260903095948 15 147 0.0 0.0 0.00 0.00 0.00 87 1018.8
20260903095437 15 148 0.0 0.0 0.00 0.00 0.00 86 1018.6
20260903095142 15 122 0.0 0.0 0.00 0.00 0.00 86 1018.4
20260903094411 15 149 0.0 0.0 0.00 0.00 0.00 86 1018.4
20260903093855 15 161 0.0 0.0 0.00 0.00 0.00 86 1018.7
20260903093602 15 129 0.0 0.0 0.00 0.00 0.00 85 1018.4
20260903092841 15 101 0.0 0.0 0.00 0.00 0.00 84 1018.8
20260903092319 16 174 0.0 0.0 0.00 0.00 0.00 84 1018.8
20260903091732 16 174 0.0 0.0 0.00 0.00 0.00 83 1018.7
20260903091231 16 163 0.0 0.0 0.00 0.00 0.00 82 1018.6
20260903090729 17 186 0.0 0.0 0.00 0.00 0.00 79 1018.9
20260903090151 17 161 0.0 0.0 0.00 0.00 0.00 78 1018.9
20260903085620 17 162 0.0 0.0 0.00 0.00 0.00 77 1018.5
20260903085105 17 190 0.0 0.0 0.00 0.00 0.00 76 1018.4
20260903084818 17 135 0.0 0.0 0.00 0.00 0.00 77 1018.5
20260903084041 17 176 0.0 0.0 0.00 0.00 0.00 77 1018.3
20260903083527 17 133 0.0 0.0 0.00 0.00 0.00 78 1018.4
20260903083229 17 157 0.0 0.0 0.00 0.00 0.00 81 1018.7
20260903082457 17 161 0.0 0.0 0.00 0.00 0.00 82 1018.7
20260903082205 16 166 0.0 0.0 0.00 0.00 0.00 84 1018.6
20260903081427 16 183 0.0 0.0 0.00 0.00 0.00 86 1018.5
20260903080911 16 183 0.0 0.0 0.00 0.00 0.00 87 1018.7
20260903080533 16 203 0.0 0.0 0.00 0.00 0.00 88 1018.8
20260903080217 15 203 0.0 0.0 0.00 0.00 0.00 88 1018.7
20260903075231 15 203 0.0 0.0 0.00 0.00 0.00 88 1018.8
20260903074717 15 203 0.0 0.0 0.00 0.00 0.00 88 1018.7
20260903074424 15 203 0.0 0.0 0.00 0.00 0.00 89 1018.9
20260903073653 15 203 0.0 0.0 0.00 0.00 0.00 89 1018.9
20260903073138 15 203 0.0 0.0 0.00 0.00 0.00 89 1018.8
20260903072628 15 203 0.0 0.0 0.00 0.00 0.00 89 1018.7
20260903072110 14 203 0.0 0.0 0.00 0.00 0.00 89 1018.7
20260903071558 14 203 0.0 0.0 0.00 0.00 0.00 89 1018.7
20260903071040 14 203 0.0 0.0 0.00 0.00 0.00 89 1018.7
20260903070521 13 203 0.0 0.0 0.00 0.00 0.00 89 1018.7
20260903070008 13 203 0.0 0.0 0.00 0.00 0.00 90 1019.0
20260903065437 13 203 0.0 0.0 0.00 0.00 0.00 89 1018.9
20260903064648 13 203 0.0 0.0 0.00 0.00 0.00 90 1018.9
20260903064145 13 203 0.0 0.0 0.00 0.00 0.00 90 1018.9
20260903063645 13 203 0.0 0.0 0.00 0.00 0.00 90 1018.7
20260903063144 13 203 0.0 0.0 0.00 0.00 0.00 90 1018.9
20260903062909 13 203 0.0 0.0 0.00 0.00 0.00 90 1018.9
20260903062143 13 203 0.0 0.0 0.00 0.00 0.00 90 1018.8
20260903061904 12 203 0.0 0.0 0.00 0.00 0.00 90 1018.9
20260903061142 12 203 0.0 0.0 0.00 0.00 0.00 90 1018.7
20260903060639 12 203 0.0 0.0 0.00 0.00 0.00 90 1018.5
20260903060402 12 203 0.0 0.0 0.00 0.00 0.00 90 1018.4
20260903055640 12 203 0.0 0.0 0.00 0.00 0.00 90 1018.4
20260903055140 12 203 0.0 0.0 0.00 0.00 0.00 90 1018.3
20260903054640 12 189 0.0 0.0 0.00 0.00 0.00 90 1018.4
20260903054142 12 189 0.0 0.0 0.00 0.00 0.00 90 1018.6
20260903053637 12 189 0.0 0.0 0.00 0.00 0.00 90 1018.9
20260903053408 12 121 0.0 0.0 0.00 0.00 0.00 90 1018.9
20260903052902 12 121 0.0 0.0 0.00 0.00 0.00 90 1018.9
20260903052136 12 121 0.0 0.0 0.00 0.00 0.00 90 1019.1
20260903051636 12 121 0.0 0.0 0.00 0.00 0.00 90 1019.2
20260903051625 12 121 0.0 0.0 0.00 0.00 0.00 89 1019.0
20260903050635 12 121 0.0 0.0 0.00 0.00 0.00 89 1018.9
20260903050133 12 121 0.0 0.0 0.00 0.00 0.00 89 1018.9
20260903045632 12 121 0.0 0.0 0.00 0.00 0.00 89 1018.8
20260903045132 12 121 0.0 0.0 0.00 0.00 0.00 89 1018.9
20260903044632 12 121 0.0 0.0 0.00 0.00 0.00 89 1018.9
20260903044131 12 121 0.0 0.0 0.00 0.00 0.00 89 1018.9
20260903043625 12 121 0.0 0.0 0.00 0.00 0.00 90 1018.9
20260903043346 12 121 0.0 0.0 0.00 0.00 0.00 90 1018.9
20260903042624 12 121 0.0 0.0 0.00 0.00 0.00 90 1018.9
20260903042348 12 121 0.0 0.0 0.00 0.00 0.00 90 1018.9
20260903041840 12 121 0.0 0.0 0.00 0.00 0.00 90 1019.1
20260903041124 12 121 0.0 0.0 0.00 0.00 0.00 90 1019.2
20260903040624 12 121 0.0 0.0 0.00 0.00 0.00 90 1019.4
20260903040123 12 121 0.0 0.0 0.00 0.00 0.00 90 1019.3
20260903035621 12 122 0.0 0.0 0.00 0.00 0.00 90 1019.4
20260903035121 12 121 0.0 0.0 0.00 0.00 0.00 90 1019.4
20260903034622 11 121 0.0 0.0 0.00 0.00 0.00 90 1019.4
20260903034120 11 121 0.0 0.0 0.00 0.00 0.00 90 1019.3
20260903033621 11 123 0.0 0.0 0.00 0.00 0.00 90 1019.4
20260903033119 11 123 0.0 0.0 0.00 0.00 0.00 90 1019.4
20260903032619 11 123 0.0 0.0 0.00 0.00 0.00 90 1019.4
20260903032119 11 123 0.0 0.0 0.00 0.00 0.00 90 1019.4
20260903031619 11 123 0.0 0.0 0.00 0.00 0.00 90 1019.6
20260903031122 11 123 0.0 0.0 0.00 0.00 0.00 90 1019.5
20260903030838 11 123 0.0 0.0 0.00 0.00 0.00 90 1019.5
20260903030119 11 123 0.0 0.0 0.00 0.00 0.00 90 1019.6
20260903025619 11 123 0.0 0.0 0.00 0.00 0.00 90 1019.6
20260903025120 11 123 0.0 0.0 0.00 0.00 0.00 90 1019.6
20260903024620 11 122 0.0 0.0 0.00 0.00 0.00 90 1019.7
20260903024118 11 122 0.0 0.0 0.00 0.00 0.00 90 1019.6
20260903023618 11 120 0.0 0.0 0.00 0.00 0.00 90 1019.7
20260903023341 11 119 0.0 0.0 0.00 0.00 0.00 90 1019.8
20260903022617 11 119 0.0 0.0 0.00 0.00 0.00 90 1019.8
20260903022117 11 119 0.0 0.0 0.00 0.00 0.00 90 1019.9
20260903021612 11 119 0.0 0.0 0.00 0.00 0.00 90 1020.0
20260903021335 11 119 0.0 0.0 0.00 0.00 0.00 90 1020.0
20260903020600 11 119 0.0 0.0 0.00 0.00 0.00 90 1020.1
20260903020110 11 119 0.0 0.0 0.00 0.00 0.00 90 1020.1
20260903015559 11 119 0.0 0.0 0.00 0.00 0.00 90 1020.1
20260903015057 11 126 0.0 0.0 0.00 0.00 0.00 90 1020.1
20260903015049 11 126 0.0 0.0 0.00 0.00 0.00 90 1020.2
20260903014057 11 126 0.0 0.0 0.00 0.00 0.00 90 1020.2
20260903013557 11 126 0.0 0.0 0.00 0.00 0.00 89 1020.2
20260903013058 11 126 0.0 0.0 0.00 0.00 0.00 89 1020.3
20260903012553 11 126 0.0 0.0 0.00 0.00 0.00 89 1020.3
20260903012054 11 125 0.0 0.0 0.00 0.00 0.00 89 1020.2
20260903012033 11 123 0.0 0.0 0.00 0.00 0.00 90 1020.3
20260903011053 11 122 0.0 0.0 0.00 0.00 0.00 90 1020.3
20260903010816 11 122 0.0 0.0 0.00 0.00 0.00 89 1020.4
20260903010105 11 122 0.0 0.0 0.00 0.00 0.00 89 1020.4
20260903005815 11 123 0.0 0.0 0.00 0.00 0.00 89 1020.4
20260903005052 11 124 0.0 0.0 0.00 0.00 0.00 89 1020.5
20260903004551 11 124 0.0 0.0 0.00 0.00 0.00 89 1020.6
20260903004047 11 123 0.0 0.0 0.00 0.00 0.00 89 1020.6
20260903003548 11 123 0.0 0.0 0.00 0.00 0.00 89 1020.6
20260903003048 11 123 0.0 0.0 0.00 0.00 0.00 89 1020.6
20260903002547 11 123 0.0 0.0 0.00 0.00 0.00 89 1020.5
20260903002047 11 123 0.0 0.0 0.00 0.00 0.00 89 1020.5
20260903001550 11 123 0.0 0.0 0.00 0.00 0.00 89 1020.5
20260903001324 11 124 0.0 0.0 0.00 0.00 0.00 89 1020.5
20260903000547 11 124 0.0 0.0 0.00 0.00 0.00 89 1020.6
20260903000318 11 123 0.0 0.0 0.00 0.00 0.00 89 1020.7
20260902235556 11 123 0.0 0.0 0.00 0.00 0.00 89 1020.7
20260902235044 11 123 0.0 0.0 0.00 0.00 0.00 89 1020.7
20260902234546 11 122 0.0 0.0 0.00 0.00 0.00 89 1020.8
20260902234044 11 122 0.0 0.0 0.00 0.00 0.00 89 1020.8
20260902233804 11 122 0.0 0.0 0.00 0.00 0.00 88 1020.7
20260902233044 11 122 0.0 0.0 0.00 0.00 0.00 88 1020.7
20260902232546 11 122 0.0 0.0 0.00 0.00 0.00 88 1020.7
20260902232044 11 122 0.0 0.0 0.00 0.00 0.00 88 1020.7
20260902231544 11 122 0.0 0.0 0.00 0.00 0.00 88 1020.7
20260902231039 11 122 0.0 0.0 0.00 0.00 0.00 88 1020.7
20260902230539 11 122 0.0 0.0 0.00 0.00 0.00 88 1020.8
20260902230053 12 122 0.0 0.0 0.00 0.00 0.00 88 1020.8
20260902225540 12 122 0.0 0.0 0.00 0.00 0.00 88 1020.9
20260902225040 12 122 0.0 0.0 0.00 0.00 0.00 88 1020.8
20260902224539 12 122 0.0 0.0 0.00 0.00 0.00 88 1020.8
20260902224039 12 122 0.0 0.0 0.00 0.00 0.00 88 1020.9
20260902223539 12 122 0.0 0.0 0.00 0.00 0.00 88 1021.0
20260902223040 12 131 0.0 0.0 0.00 0.00 0.00 88 1020.9
20260902222540 12 131 0.0 0.0 0.00 0.00 0.00 88 1020.9
20260902222039 12 131 0.0 0.0 0.00 0.00 0.00 88 1020.9
20260902221539 12 131 0.0 0.0 0.00 0.00 0.00 87 1020.9
20260902221039 12 131 0.0 0.0 0.00 0.00 0.00 88 1020.9
20260902220539 12 131 0.0 0.0 0.00 0.00 0.00 87 1020.9
20260902220319 12 131 0.0 0.0 0.00 0.00 0.00 87 1020.8
20260902215536 12 132 0.0 0.0 0.00 0.00 0.00 87 1020.9
20260902215300 13 132 0.0 0.0 0.00 0.00 0.00 87 1020.9
20260902214533 13 132 0.0 0.0 0.00 0.00 0.00 87 1020.9
20260902214033 13 132 0.0 0.0 0.00 0.00 0.00 87 1020.9
20260902213544 13 132 0.0 0.0 0.00 0.00 0.00 86 1021.0
20260902213031 13 133 0.0 0.0 0.00 0.00 0.00 87 1020.9
20260902212524 13 133 0.0 0.0 0.00 0.00 0.00 86 1021.0
20260902212019 13 133 0.0 0.0 0.00 0.00 0.00 86 1020.9
20260902211518 13 133 0.0 0.0 0.00 0.00 0.00 86 1020.9
20260902211031 13 133 0.0 0.0 0.00 0.00 0.00 86 1020.9
20260902210530 13 133 0.0 0.0 0.00 0.00 0.00 86 1020.9
20260902210015 13 133 0.0 0.0 0.00 0.00 0.00 86 1020.9
20260902205514 13 133 0.0 0.0 0.00 0.00 0.00 86 1020.9
20260902205012 14 132 0.0 0.0 0.00 0.00 0.00 86 1020.9
20260902204513 14 133 0.0 0.0 0.00 0.00 0.00 86 1020.9
20260902204013 14 133 0.0 0.0 0.00 0.00 0.00 86 1020.9
20260902203511 14 133 0.0 0.0 0.00 0.00 0.00 86 1020.9
20260902203009 14 133 0.0 0.0 0.00 0.00 0.00 86 1020.9
20260902202508 14 134 0.0 0.0 0.00 0.00 0.00 85 1020.9
20260902202007 14 134 0.0 0.0 0.00 0.00 0.00 85 1020.9
20260902201508 15 136 0.0 0.0 0.00 0.00 0.00 85 1020.9
20260902201005 15 136 0.0 0.0 0.00 0.00 0.00 86 1021.0
20260902200505 15 137 0.0 0.0 0.00 0.00 0.00 85 1021.0
20260902200002 15 137 0.0 0.0 0.00 0.00 0.00 85 1021.0
20260902195501 15 139 0.0 0.0 0.00 0.00 0.00 85 1021.0
20260902194958 15 145 0.0 0.0 0.00 0.00 0.00 85 1021.0
20260902194459 15 166 0.0 0.0 0.00 0.00 0.00 85 1021.0
20260902193956 15 166 0.0 0.0 0.00 0.00 0.00 85 1021.0
20260902193456 15 168 0.0 0.0 0.00 0.00 0.00 85 1021.0
20260902192957 15 168 0.0 0.0 0.00 0.00 0.00 85 1021.0
20260902192456 15 167 0.0 0.0 0.00 0.00 0.00 85 1021.0
20260902191956 15 167 0.0 0.0 0.00 0.00 0.00 85 1021.0
20260902191456 15 167 0.0 0.0 0.00 0.00 0.00 84 1020.9
20260902190957 15 170 0.0 0.0 0.00 0.00 0.00 84 1020.9
20260902190724 15 170 0.0 0.0 0.00 0.00 0.00 84 1020.8
20260902185956 15 170 0.0 0.0 0.00 0.00 0.00 84 1020.9
20260902185457 15 170 0.0 0.0 0.00 0.00 0.00 84 1020.8
20260902184956 15 172 0.0 0.0 0.00 0.00 0.00 83 1020.8
20260902184456 15 172 0.0 0.0 0.00 0.00 0.00 83 1020.8
20260902183959 15 172 0.0 0.0 0.00 0.00 0.00 83 1020.8
20260902183456 15 172 0.0 0.0 0.00 0.00 0.00 82 1020.8
20260902182956 15 172 0.0 0.0 0.00 0.00 0.00 82 1020.6
20260902182453 16 179 0.0 0.0 0.00 0.00 0.00 82 1020.5
20260902181952 16 179 0.0 0.0 0.00 0.00 0.00 81 1020.5
20260902181452 16 179 0.0 0.0 0.00 0.00 0.00 81 1020.5
20260902180952 16 179 0.0 0.0 0.00 0.00 0.00 81 1020.4